Location: Dzierzno
(50.6159°N, 19.2852°E)
Time: 20:28:45
(UTC+00:00)

Cosmos 1346 Rocket - Pass Details

Date: 18 November 2025
Orbit: 479 x 490 km, 81.2° (Epoch: 10 December)

Event Time Altitude Azimuth Distance (km) Brightness Sun altitude
Rises 15:59:30 0° 2° (N) 2,590 6.1 -10.5°
Reaches altitude 10° 16:02:25 10° 27° (NNE) 1,702 4.9 -10.9°
Enters shadow 16:03:41 14° 46° (NE) 1,476 4.5 -11.1°
